Location: Asheville, NC
(35.6000°N, 82.5500°W)
Time: 17:25:44
(UTC-04:00)

Vanguard 2 Rocket - Pass Details

Date: 14 February 2018
Orbit: 554 x 3327 km, 32.9° (Epoch: 22 May)

Event Time Altitude Azimuth Distance (km) Brightness Sun altitude
Rises 01:19:38 0° 246° (WSW) 5,946 - -66.1°
Reaches altitude 10° 01:23:02 10° 244° (WSW) 5,230 - -65.8°
Maximum altitude 01:40:04 74° 163° (SSE) 3,325 - -64.2°
Exits shadow 01:49:51 41° 91° (E) 4,243 10.1 -63.0°
Drops below altitude 10° 02:00:16 10° 84° (E) 6,053 11.3 -61.7°
Sets 02:04:34 0° 83° (E) 6,878 11.7 -61.1°
